�N����,�����b,���ԉ��x,���Ԏ��x,��󒲎�,����,�����W,���։��x,���֎��x
2005/1/1,0:00:00,19.7 ,37.6 ,10.9 ,7.1 ,22.3 ,22.3 ,38.8 
2005/1/1,0:15:00,20.0 ,36.2 ,11.2 ,6.8 ,22.5 ,22.4 ,38.0 
2005/1/1,0:30:00,19.8 ,35.7 ,11.6 ,6.9 ,22.9 ,22.4 ,37.4 
2005/1/1,0:45:00,19.8 ,35.3 ,12.0 ,6.9 ,23.4 ,22.5 ,36.9 
2005/1/1,1:00:00,19.8 ,35.2 ,12.2 ,7.0 ,23.6 ,22.5 ,36.6 
2005/1/1,1:15:00,20.8 ,34.9 ,12.5 ,7.1 ,23.3 ,22.6 ,36.3 
2005/1/1,1:30:00,20.6 ,35.3 ,12.5 ,7.2 ,22.9 ,22.7 ,36.2 
2005/1/1,1:45:00,20.7 ,34.8 ,12.4 ,7.3 ,22.7 ,22.8 ,36.1 
2005/1/1,2:00:00,20.6 ,34.2 ,12.2 ,7.5 ,22.5 ,22.8 ,35.9 
2005/1/1,2:15:00,21.4 ,36.0 ,12.3 ,7.6 ,21.9 ,22.8 ,36.0 
2005/1/1,2:30:00,20.6 ,37.3 ,12.2 ,7.5 ,20.7 ,22.6 ,36.5 
2005/1/1,2:45:00,20.1 ,36.4 ,12.1 ,7.4 ,19.9 ,22.4 ,36.7 
2005/1/1,3:00:00,19.7 ,36.2 ,12.0 ,7.5 ,19.5 ,22.3 ,36.7 
2005/1/1,3:15:00,19.5 ,36.7 ,12.0 ,7.5 ,19.0 ,22.1 ,36.1 
2005/1/1,3:30:00,19.3 ,37.1 ,12.0 ,7.6 ,18.6 ,21.9 ,35.3 
2005/1/1,3:45:00,19.0 ,38.1 ,11.9 ,7.6 ,18.1 ,21.7 ,34.9 
2005/1/1,4:00:00,18.8 ,38.7 ,11.9 ,7.7 ,17.3 ,21.5 ,34.6 
2005/1/1,4:15:00,18.6 ,38.9 ,11.9 ,7.7 ,17.0 ,21.3 ,34.4 
2005/1/1,4:30:00,18.4 ,38.9 ,11.9 ,7.8 ,16.8 ,21.1 ,34.3 
2005/1/1,4:45:00,18.2 ,38.8 ,11.8 ,7.8 ,16.9 ,20.8 ,34.3 
2005/1/1,5:00:00,18.1 ,38.9 ,11.8 ,7.9 ,16.7 ,20.6 ,34.4 
2005/1/1,5:15:00,18.8 ,38.5 ,11.8 ,7.9 ,17.0 ,20.5 ,34.8 
2005/1/1,5:30:00,19.6 ,37.1 ,11.8 ,7.9 ,17.9 ,20.7 ,35.4 
2005/1/1,5:45:00,19.9 ,36.4 ,11.7 ,7.9 ,18.5 ,20.9 ,35.6 
2005/1/1,6:00:00,20.5 ,35.7 ,11.7 ,8.0 ,18.7 ,21.1 ,35.4 
2005/1/1,6:15:00,19.8 ,37.1 ,11.8 ,8.0 ,18.8 ,21.2 ,35.6 
2005/1/1,6:30:00,19.2 ,38.2 ,11.7 ,8.0 ,18.0 ,21.1 ,35.1 
2005/1/1,6:45:00,18.7 ,38.1 ,11.7 ,8.1 ,17.4 ,20.8 ,34.4 
2005/1/1,7:00:00,18.5 ,38.2 ,11.7 ,8.1 ,16.8 ,20.6 ,34.1 
2005/1/1,7:15:00,18.1 ,38.3 ,11.6 ,8.1 ,16.3 ,20.4 ,34.0 
2005/1/1,7:30:00,17.9 ,39.1 ,11.6 ,7.9 ,16.0 ,20.2 ,34.1 
2005/1/1,7:45:00,17.6 ,39.5 ,11.5 ,6.9 ,16.0 ,20.0 ,34.3 
2005/1/1,8:00:00,18.0 ,40.2 ,11.5 ,6.9 ,16.3 ,19.9 ,34.6 
2005/1/1,8:15:00,19.0 ,39.0 ,11.6 ,7.0 ,17.4 ,20.0 ,35.6 
2005/1/1,8:30:00,19.3 ,38.9 ,11.6 ,7.1 ,18.1 ,20.1 ,36.1 
2005/1/1,8:45:00,19.9 ,37.8 ,11.6 ,7.2 ,18.6 ,20.3 ,36.3 
2005/1/1,9:00:00,20.2 ,38.0 ,11.7 ,7.3 ,19.1 ,20.6 ,36.3 
2005/1/1,9:15:00,20.5 ,37.7 ,11.8 ,7.3 ,19.4 ,20.8 ,36.4 
2005/1/1,9:30:00,20.7 ,39.3 ,11.8 ,7.4 ,20.4 ,21.1 ,36.8 
2005/1/1,9:45:00,21.4 ,40.9 ,11.6 ,7.4 ,22.1 ,21.3 ,38.0 
2005/1/1,10:00:00,21.5 ,41.9 ,11.8 ,6.9 ,21.6 ,21.5 ,38.7 
2005/1/1,10:15:00,22.2 ,41.6 ,11.8 ,7.0 ,21.4 ,21.7 ,40.0 
2005/1/1,10:30:00,22.6 ,40.7 ,11.9 ,7.1 ,21.6 ,21.9 ,40.1 
2005/1/1,10:45:00,22.0 ,41.8 ,11.9 ,7.2 ,21.1 ,22.1 ,39.5 
2005/1/1,11:00:00,21.6 ,42.7 ,11.9 ,7.2 ,20.1 ,21.9 ,38.9 
2005/1/1,11:15:00,21.1 ,41.6 ,11.8 ,7.3 ,19.6 ,21.8 ,38.6 
2005/1/1,11:30:00,20.8 ,43.4 ,11.8 ,7.3 ,19.4 ,21.6 ,38.4 
2005/1/1,11:45:00,21.3 ,42.5 ,11.8 ,6.8 ,19.6 ,21.6 ,39.0 
2005/1/1,12:00:00,21.2 ,38.2 ,12.5 ,6.9 ,19.1 ,21.6 ,38.4 
2005/1/1,12:15:00,21.3 ,37.2 ,12.2 ,6.9 ,18.8 ,21.6 ,37.4 
2005/1/1,12:30:00,21.9 ,36.5 ,11.9 ,7.0 ,19.4 ,21.6 ,36.6 
2005/1/1,12:45:00,20.8 ,37.4 ,12.2 ,7.1 ,19.0 ,21.6 ,36.1 
2005/1/1,13:00:00,21.0 ,38.9 ,12.1 ,7.1 ,18.7 ,21.4 ,36.6 
2005/1/1,13:15:00,21.4 ,39.1 ,12.0 ,7.2 ,18.9 ,21.3 ,37.1 
2005/1/1,13:30:00,20.5 ,37.9 ,11.9 ,7.3 ,18.7 ,21.3 ,37.1 
2005/1/1,13:45:00,20.1 ,37.7 ,11.7 ,7.3 ,18.0 ,21.1 ,35.3 
2005/1/1,14:00:00,19.6 ,38.2 ,12.5 ,7.4 ,17.6 ,20.8 ,34.4 
2005/1/1,14:15:00,19.2 ,39.3 ,13.6 ,7.4 ,17.0 ,20.6 ,34.1 
2005/1/1,14:30:00,18.8 ,40.2 ,14.0 ,7.5 ,16.6 ,20.4 ,33.9 
2005/1/1,14:45:00,18.5 ,40.7 ,14.2 ,7.5 ,16.5 ,20.2 ,33.9 
2005/1/1,15:00:00,18.3 ,41.1 ,14.3 ,7.6 ,16.2 ,20.0 ,33.9 
2005/1/1,15:15:00,18.0 ,41.4 ,14.4 ,7.6 ,15.9 ,19.8 ,33.9 
2005/1/1,15:30:00,17.8 ,41.7 ,14.4 ,7.6 ,15.6 ,19.6 ,34.0 
2005/1/1,15:45:00,17.6 ,41.9 ,14.4 ,7.7 ,15.2 ,19.3 ,34.1 
2005/1/1,16:00:00,17.4 ,42.0 ,14.5 ,7.7 ,15.0 ,19.1 ,34.1 
2005/1/1,16:15:00,17.2 ,42.3 ,14.5 ,7.8 ,14.9 ,18.9 ,34.3 
2005/1/1,16:30:00,17.0 ,42.3 ,14.4 ,7.8 ,14.9 ,18.8 ,34.3 
2005/1/1,16:45:00,16.8 ,42.4 ,14.4 ,7.8 ,14.9 ,18.6 ,34.3 
2005/1/1,17:00:00,16.6 ,42.3 ,14.4 ,7.9 ,14.7 ,18.5 ,34.3 
2005/1/1,17:15:00,16.4 ,42.1 ,14.4 ,7.9 ,14.5 ,18.3 ,34.4 
2005/1/1,17:30:00,16.2 ,42.0 ,14.3 ,8.0 ,14.4 ,18.2 ,34.4 
2005/1/1,17:45:00,16.0 ,41.8 ,14.3 ,8.0 ,14.2 ,18.0 ,34.4 
2005/1/1,18:00:00,15.9 ,41.5 ,14.2 ,8.0 ,14.1 ,17.8 ,34.4 
2005/1/1,18:15:00,15.7 ,41.2 ,14.2 ,8.0 ,13.9 ,17.6 ,34.4 
2005/1/1,18:30:00,15.5 ,41.4 ,14.1 ,8.1 ,13.8 ,17.5 ,34.4 
2005/1/1,18:45:00,15.3 ,41.4 ,14.0 ,8.1 ,13.7 ,17.4 ,34.3 
2005/1/1,19:00:00,15.2 ,41.5 ,14.0 ,8.1 ,13.6 ,17.3 ,34.3 
2005/1/1,19:15:00,15.0 ,41.6 ,13.9 ,8.1 ,13.5 ,17.1 ,34.3 
2005/1/1,19:30:00,14.9 ,41.6 ,13.8 ,8.2 ,13.3 ,16.9 ,34.3 
2005/1/1,19:45:00,14.8 ,41.7 ,13.8 ,8.2 ,13.1 ,16.8 ,34.3 
2005/1/1,20:00:00,14.6 ,41.7 ,13.7 ,8.2 ,12.9 ,16.7 ,34.3 
2005/1/1,20:15:00,14.5 ,41.6 ,13.6 ,8.2 ,12.9 ,16.6 ,34.4 
2005/1/1,20:30:00,14.4 ,41.5 ,13.5 ,8.2 ,12.8 ,16.4 ,34.4 
2005/1/1,20:45:00,14.3 ,41.6 ,13.5 ,8.2 ,12.7 ,16.3 ,34.4 
2005/1/1,21:00:00,14.2 ,41.6 ,13.4 ,8.3 ,12.6 ,16.1 ,34.4 
2005/1/1,21:15:00,14.0 ,41.5 ,13.3 ,8.3 ,12.5 ,16.0 ,34.4 
2005/1/1,21:30:00,13.9 ,41.4 ,13.3 ,8.3 ,12.5 ,15.9 ,34.4 
2005/1/1,21:45:00,13.8 ,41.5 ,13.2 ,8.3 ,12.5 ,15.8 ,34.4 
2005/1/1,22:00:00,13.7 ,41.7 ,13.1 ,8.3 ,12.5 ,15.6 ,34.5 
2005/1/1,22:15:00,13.6 ,42.1 ,13.1 ,8.3 ,12.4 ,15.5 ,34.4 
2005/1/1,22:30:00,13.5 ,42.1 ,13.0 ,8.3 ,12.2 ,15.4 ,34.4 
2005/1/1,22:45:00,13.4 ,42.3 ,12.9 ,8.4 ,12.1 ,15.3 ,34.5 
2005/1/1,23:00:00,13.3 ,42.2 ,12.8 ,8.4 ,12.0 ,15.2 ,34.6 
2005/1/1,23:15:00,13.2 ,42.3 ,12.7 ,8.4 ,12.0 ,15.0 ,34.7 
2005/1/1,23:30:00,13.1 ,42.5 ,12.7 ,8.4 ,12.0 ,15.0 ,34.7 
2005/1/1,23:45:00,13.0 ,42.9 ,12.6 ,8.4 ,12.0 ,14.9 ,34.8 
2005/1/2,0:00:00,12.9 ,42.9 ,12.5 ,8.4 ,11.9 ,14.7 ,34.9 
2005/1/2,0:15:00,12.8 ,43.1 ,12.5 ,8.4 ,11.8 ,14.6 ,34.9 
2005/1/2,0:30:00,12.7 ,43.1 ,12.4 ,8.4 ,12.0 ,14.5 ,34.9 
2005/1/2,0:45:00,12.6 ,43.2 ,12.3 ,8.4 ,12.0 ,14.4 ,35.0 
2005/1/2,1:00:00,12.5 ,43.3 ,12.2 ,8.4 ,12.0 ,14.3 ,35.1 
2005/1/2,1:15:00,12.4 ,43.5 ,12.2 ,8.4 ,11.9 ,14.2 ,35.1 
2005/1/2,1:30:00,12.2 ,43.7 ,12.1 ,8.4 ,11.7 ,14.1 ,35.1 
2005/1/2,1:45:00,12.2 ,43.7 ,12.0 ,8.4 ,11.7 ,14.0 ,35.1 
2005/1/2,2:00:00,12.1 ,44.0 ,12.0 ,8.5 ,11.6 ,13.9 ,35.2 
2005/1/2,2:15:00,12.0 ,44.1 ,11.9 ,8.5 ,11.5 ,13.8 ,35.2 
2005/1/2,2:30:00,11.9 ,44.2 ,11.8 ,8.5 ,11.5 ,13.8 ,35.3 
2005/1/2,2:45:00,11.8 ,44.4 ,11.8 ,8.5 ,11.5 ,13.6 ,35.3 
2005/1/2,3:00:00,11.7 ,44.6 ,11.7 ,8.5 ,11.3 ,13.6 ,35.4 
2005/1/2,3:15:00,11.6 ,44.5 ,11.6 ,8.5 ,11.2 ,13.4 ,35.4 
2005/1/2,3:30:00,11.5 ,44.8 ,11.6 ,8.5 ,11.0 ,13.4 ,35.5 
2005/1/2,3:45:00,11.5 ,44.9 ,11.5 ,8.5 ,10.8 ,13.3 ,35.6 
2005/1/2,4:00:00,11.4 ,45.0 ,11.4 ,8.5 ,10.7 ,13.1 ,35.7 
2005/1/2,4:15:00,11.3 ,45.1 ,11.4 ,8.5 ,10.6 ,13.1 ,35.8 
2005/1/2,4:30:00,11.2 ,45.0 ,11.3 ,8.5 ,10.6 ,13.0 ,35.8 
2005/1/2,4:45:00,11.1 ,45.0 ,11.2 ,8.5 ,10.5 ,12.9 ,35.9 
2005/1/2,5:00:00,11.1 ,45.1 ,11.1 ,8.5 ,10.4 ,12.8 ,35.9 
2005/1/2,5:15:00,11.0 ,45.2 ,11.1 ,8.5 ,10.4 ,12.8 ,35.9 
2005/1/2,5:30:00,10.9 ,45.2 ,11.0 ,8.5 ,10.4 ,12.7 ,36.1 
2005/1/2,5:45:00,10.8 ,45.5 ,11.0 ,8.5 ,10.2 ,12.6 ,36.1 
2005/1/2,6:00:00,10.7 ,45.5 ,10.9 ,8.5 ,10.1 ,12.5 ,36.3 
2005/1/2,6:15:00,10.7 ,45.6 ,10.8 ,8.5 ,10.0 ,12.4 ,36.3 
2005/1/2,6:30:00,10.6 ,45.6 ,10.8 ,8.5 ,10.0 ,12.4 ,36.3 
2005/1/2,6:45:00,10.6 ,45.6 ,10.7 ,8.5 ,9.9 ,12.3 ,36.3 
2005/1/2,7:00:00,10.5 ,45.7 ,10.6 ,8.5 ,9.9 ,12.3 ,36.4 
2005/1/2,7:15:00,10.5 ,45.7 ,10.6 ,8.5 ,9.9 ,12.2 ,36.4 
2005/1/2,7:30:00,10.4 ,45.9 ,10.5 ,8.5 ,9.8 ,12.1 ,36.5 
2005/1/2,7:45:00,10.4 ,45.9 ,10.4 ,8.5 ,9.8 ,12.1 ,36.6 
2005/1/2,8:00:00,10.4 ,46.0 ,10.4 ,8.5 ,9.9 ,12.0 ,36.7 
2005/1/2,8:15:00,10.3 ,46.1 ,10.3 ,8.5 ,10.0 ,11.9 ,36.8 
2005/1/2,8:30:00,10.3 ,46.2 ,10.3 ,8.5 ,10.1 ,11.9 ,36.8 
2005/1/2,8:45:00,10.4 ,47.8 ,10.5 ,8.5 ,10.1 ,11.9 ,37.4 
2005/1/2,9:00:00,10.4 ,47.8 ,10.4 ,8.5 ,10.1 ,11.9 ,37.6 
2005/1/2,9:15:00,10.4 ,47.8 ,10.5 ,8.5 ,10.2 ,11.8 ,37.6 
2005/1/2,9:30:00,10.5 ,48.4 ,10.5 ,8.5 ,10.4 ,11.9 ,37.9 
2005/1/2,9:45:00,10.5 ,48.1 ,10.4 ,8.5 ,10.6 ,11.9 ,37.9 
2005/1/2,10:00:00,10.5 ,47.8 ,10.4 ,8.5 ,10.6 ,11.9 ,37.8 
2005/1/2,10:15:00,10.5 ,48.1 ,10.4 ,8.5 ,10.6 ,11.9 ,37.8 
2005/1/2,10:30:00,10.8 ,49.4 ,10.5 ,8.5 ,10.8 ,12.0 ,38.1 
2005/1/2,10:45:00,11.0 ,49.4 ,10.6 ,8.5 ,11.0 ,12.1 ,38.1 
2005/1/2,11:00:00,10.9 ,48.4 ,10.6 ,8.5 ,11.1 ,12.2 ,37.9 
2005/1/2,11:15:00,10.9 ,47.6 ,10.6 ,8.5 ,11.1 ,12.2 ,37.6 
2005/1/2,11:30:00,10.9 ,47.7 ,10.6 ,8.6 ,11.1 ,12.2 ,37.8 
2005/1/2,11:45:00,11.0 ,48.0 ,10.6 ,8.6 ,11.2 ,12.3 ,37.8 
2005/1/2,12:00:00,10.9 ,47.8 ,10.5 ,8.6 ,11.2 ,12.2 ,37.7 
2005/1/2,12:15:00,10.9 ,47.7 ,10.5 ,8.6 ,11.1 ,12.2 ,37.6 
2005/1/2,12:30:00,10.8 ,47.9 ,10.4 ,8.6 ,11.0 ,12.1 ,37.7 
2005/1/2,12:45:00,10.8 ,47.8 ,10.4 ,8.6 ,10.9 ,12.1 ,37.6 
2005/1/2,13:00:00,10.7 ,48.0 ,10.4 ,8.6 ,10.9 ,12.1 ,37.8 
2005/1/2,13:15:00,10.7 ,48.3 ,10.3 ,8.6 ,10.9 ,12.0 ,37.8 
2005/1/2,13:30:00,10.6 ,48.2 ,10.3 ,8.6 ,10.8 ,11.9 ,37.9 
2005/1/2,13:45:00,10.6 ,48.3 ,10.2 ,8.6 ,10.7 ,11.9 ,38.1 
2005/1/2,14:00:00,10.5 ,48.1 ,10.2 ,8.6 ,10.6 ,11.9 ,38.1 
2005/1/2,14:15:00,10.5 ,48.2 ,10.1 ,8.6 ,10.4 ,11.8 ,38.2 
2005/1/2,14:30:00,10.4 ,48.2 ,10.1 ,8.6 ,10.2 ,11.8 ,38.3 
2005/1/2,14:45:00,10.4 ,48.5 ,10.1 ,8.6 ,10.2 ,11.8 ,38.4 
2005/1/2,15:00:00,10.4 ,48.9 ,10.1 ,8.7 ,10.3 ,11.7 ,38.6 
2005/1/2,15:15:00,10.3 ,48.7 ,10.0 ,8.7 ,10.3 ,11.6 ,38.8 
2005/1/2,15:30:00,10.3 ,48.5 ,10.0 ,8.7 ,10.3 ,11.6 ,38.8 
2005/1/2,15:45:00,10.2 ,48.3 ,9.9 ,8.7 ,10.3 ,11.5 ,38.8 
2005/1/2,16:00:00,10.2 ,48.3 ,9.9 ,8.7 ,10.3 ,11.4 ,38.8 
2005/1/2,16:15:00,10.1 ,48.2 ,9.9 ,8.7 ,10.3 ,11.4 ,38.8 
2005/1/2,16:30:00,10.1 ,48.2 ,9.8 ,8.7 ,10.2 ,11.4 ,38.8 
2005/1/2,16:45:00,10.0 ,48.0 ,9.8 ,8.7 ,10.2 ,11.3 ,38.8 
2005/1/2,17:00:00,10.0 ,48.1 ,9.8 ,8.7 ,10.1 ,11.3 ,38.8 
2005/1/2,17:15:00,9.9 ,48.1 ,9.7 ,8.7 ,9.9 ,11.3 ,38.8 
2005/1/2,17:30:00,9.9 ,48.1 ,9.7 ,8.7 ,9.9 ,11.2 ,38.8 
2005/1/2,17:45:00,9.8 ,48.1 ,9.7 ,8.7 ,9.9 ,11.1 ,38.8 
2005/1/2,18:00:00,9.8 ,48.2 ,9.6 ,8.7 ,9.9 ,11.1 ,38.8 
2005/1/2,18:15:00,9.8 ,48.3 ,9.6 ,8.7 ,9.9 ,11.0 ,38.9 
2005/1/2,18:30:00,9.7 ,48.3 ,9.6 ,8.8 ,9.8 ,11.0 ,38.9 
2005/1/2,18:45:00,9.7 ,48.2 ,9.5 ,8.8 ,9.8 ,10.9 ,38.9 
2005/1/2,19:00:00,9.6 ,48.2 ,9.5 ,8.8 ,9.8 ,10.9 ,38.9 
2005/1/2,19:15:00,9.6 ,48.2 ,9.5 ,8.8 ,9.7 ,10.8 ,38.9 
2005/1/2,19:30:00,9.5 ,48.3 ,9.5 ,8.8 ,9.7 ,10.8 ,38.8 
2005/1/2,19:45:00,9.5 ,48.3 ,9.4 ,8.8 ,9.6 ,10.8 ,38.9 
2005/1/2,20:00:00,9.5 ,48.2 ,9.4 ,8.8 ,9.6 ,10.7 ,38.9 
2005/1/2,20:15:00,9.4 ,48.3 ,9.3 ,8.8 ,9.6 ,10.6 ,39.0 
2005/1/2,20:30:00,9.4 ,48.3 ,9.3 ,8.8 ,9.6 ,10.6 ,38.9 
2005/1/2,20:45:00,9.3 ,48.4 ,9.3 ,8.8 ,9.5 ,10.6 ,38.9 
2005/1/2,21:00:00,9.3 ,48.4 ,9.3 ,8.8 ,9.5 ,10.5 ,39.0 
2005/1/2,21:15:00,9.3 ,48.4 ,9.2 ,8.8 ,9.4 ,10.5 ,39.1 
2005/1/2,21:30:00,9.2 ,48.5 ,9.2 ,8.8 ,9.4 ,10.4 ,39.1 
2005/1/2,21:45:00,9.2 ,48.5 ,9.2 ,8.8 ,9.4 ,10.4 ,39.2 
2005/1/2,22:00:00,9.1 ,48.5 ,9.1 ,8.8 ,9.3 ,10.3 ,39.2 
2005/1/2,22:15:00,9.1 ,48.3 ,9.1 ,8.8 ,9.3 ,10.3 ,39.1 
2005/1/2,22:30:00,9.0 ,48.3 ,9.0 ,8.8 ,9.2 ,10.3 ,39.1 
2005/1/2,22:45:00,9.0 ,48.3 ,9.0 ,8.8 ,9.2 ,10.2 ,39.1 
2005/1/2,23:00:00,9.0 ,48.2 ,9.0 ,8.8 ,9.2 ,10.2 ,39.0 
2005/1/2,23:15:00,8.9 ,48.2 ,8.9 ,8.8 ,9.1 ,10.1 ,39.1 
2005/1/2,23:30:00,8.9 ,48.2 ,8.9 ,8.8 ,9.1 ,10.0 ,39.1 
2005/1/2,23:45:00,8.9 ,48.3 ,8.9 ,8.8 ,9.1 ,9.9 ,39.2 
2005/1/3,0:00:00,8.8 ,48.3 ,8.8 ,8.8 ,9.0 ,9.9 ,39.3 
2005/1/3,0:15:00,8.8 ,48.3 ,8.8 ,8.8 ,9.0 ,9.9 ,39.2 
2005/1/3,0:30:00,8.7 ,48.3 ,8.7 ,8.8 ,8.9 ,9.8 ,39.2 
2005/1/3,0:45:00,8.7 ,48.3 ,8.7 ,8.8 ,8.9 ,9.8 ,39.2 
2005/1/3,1:00:00,8.7 ,48.3 ,8.7 ,8.8 ,8.9 ,9.8 ,39.2 
2005/1/3,1:15:00,8.7 ,48.2 ,8.6 ,8.8 ,8.8 ,9.7 ,39.2 
2005/1/3,1:30:00,8.6 ,48.2 ,8.6 ,8.8 ,8.8 ,9.6 ,39.2 
2005/1/3,1:45:00,8.6 ,48.3 ,8.6 ,8.8 ,8.8 ,9.6 ,39.2 
2005/1/3,2:00:00,8.5 ,48.3 ,8.5 ,8.8 ,8.7 ,9.6 ,39.2 
2005/1/3,2:15:00,8.5 ,48.2 ,8.5 ,8.8 ,8.7 ,9.5 ,39.2 
2005/1/3,2:30:00,8.5 ,48.3 ,8.5 ,8.8 ,8.7 ,9.5 ,39.3 
2005/1/3,2:45:00,8.4 ,48.4 ,8.4 ,8.8 ,8.6 ,9.4 ,39.3 
2005/1/3,3:00:00,8.4 ,48.4 ,8.4 ,8.8 ,8.6 ,9.4 ,39.3 
2005/1/3,3:15:00,8.4 ,48.3 ,8.4 ,8.8 ,8.5 ,9.4 ,39.3 
2005/1/3,3:30:00,8.4 ,48.3 ,8.3 ,8.8 ,8.5 ,9.3 ,39.3 
2005/1/3,3:45:00,8.4 ,48.2 ,8.3 ,8.8 ,8.5 ,9.3 ,39.3 
2005/1/3,4:00:00,8.4 ,48.3 ,8.3 ,8.8 ,8.5 ,9.3 ,39.3 
2005/1/3,4:15:00,8.4 ,48.3 ,8.2 ,8.8 ,8.4 ,9.2 ,39.3 
2005/1/3,4:30:00,8.3 ,48.3 ,8.2 ,8.8 ,8.4 ,9.1 ,39.3 
2005/1/3,4:45:00,8.3 ,48.3 ,8.2 ,8.8 ,8.4 ,9.1 ,39.3 
2005/1/3,5:00:00,8.3 ,48.3 ,8.1 ,8.8 ,8.3 ,9.1 ,39.3 
2005/1/3,5:15:00,8.3 ,48.4 ,8.1 ,8.7 ,8.3 ,9.1 ,39.4 
2005/1/3,5:30:00,8.3 ,48.5 ,8.1 ,8.7 ,8.3 ,9.0 ,39.4 
2005/1/3,5:45:00,8.2 ,48.6 ,8.0 ,8.7 ,8.2 ,8.9 ,39.4 
2005/1/3,6:00:00,8.2 ,48.6 ,8.0 ,8.7 ,8.2 ,8.9 ,39.4 
2005/1/3,6:15:00,8.2 ,48.6 ,8.0 ,8.7 ,8.2 ,8.9 ,39.5 
2005/1/3,6:30:00,8.1 ,48.7 ,7.9 ,8.7 ,8.1 ,8.8 ,39.6 
2005/1/3,6:45:00,8.1 ,48.7 ,7.9 ,8.7 ,8.0 ,8.8 ,39.6 
2005/1/3,7:00:00,8.1 ,48.8 ,7.9 ,8.7 ,7.9 ,8.8 ,39.6 
2005/1/3,7:15:00,8.0 ,48.9 ,7.8 ,8.7 ,7.8 ,8.7 ,39.7 
2005/1/3,7:30:00,8.0 ,48.8 ,7.8 ,8.7 ,7.8 ,8.7 ,39.7 
2005/1/3,7:45:00,8.0 ,48.8 ,7.8 ,8.7 ,7.8 ,8.6 ,39.8 
2005/1/3,8:00:00,8.0 ,49.4 ,7.7 ,8.7 ,7.8 ,8.6 ,39.8 
2005/1/3,8:15:00,8.1 ,51.1 ,8.0 ,8.7 ,7.9 ,8.6 ,40.4 
2005/1/3,8:30:00,8.2 ,51.7 ,8.3 ,8.7 ,8.0 ,8.8 ,40.9 
2005/1/3,8:45:00,8.4 ,51.1 ,8.5 ,8.6 ,8.2 ,8.9 ,40.4 
2005/1/3,9:00:00,8.5 ,50.3 ,8.6 ,8.6 ,8.3 ,9.0 ,40.0 
2005/1/3,9:15:00,8.6 ,49.9 ,8.6 ,8.6 ,8.5 ,9.1 ,39.8 
2005/1/3,9:30:00,8.8 ,49.8 ,8.6 ,8.6 ,8.6 ,9.2 ,39.6 
2005/1/3,9:45:00,8.9 ,49.2 ,8.6 ,8.6 ,8.7 ,9.3 ,39.5 
2005/1/3,10:00:00,8.9 ,48.5 ,8.5 ,8.6 ,8.7 ,9.4 ,39.0 
2005/1/3,10:15:00,9.0 ,49.4 ,8.6 ,8.6 ,8.8 ,9.4 ,39.0 
2005/1/3,10:30:00,9.1 ,49.8 ,8.7 ,8.6 ,9.0 ,9.6 ,39.4 
2005/1/3,10:45:00,9.3 ,49.7 ,8.8 ,8.6 ,9.1 ,9.7 ,39.6 
2005/1/3,11:00:00,9.5 ,49.2 ,8.9 ,8.6 ,9.3 ,9.9 ,39.5 
2005/1/3,11:15:00,9.6 ,48.7 ,9.0 ,8.6 ,9.5 ,10.0 ,39.2 
2005/1/3,11:30:00,9.7 ,48.4 ,9.0 ,8.6 ,9.6 ,10.2 ,38.9 
2005/1/3,11:45:00,9.8 ,48.0 ,9.1 ,8.6 ,9.6 ,10.3 ,38.6 
2005/1/3,12:00:00,9.8 ,47.8 ,9.1 ,8.6 ,9.6 ,10.3 ,38.4 
2005/1/3,12:15:00,9.8 ,47.7 ,9.1 ,8.6 ,9.7 ,10.4 ,38.2 
2005/1/3,12:30:00,9.9 ,47.6 ,9.1 ,8.6 ,9.7 ,10.4 ,38.1 
2005/1/3,12:45:00,10.0 ,48.1 ,9.2 ,8.6 ,9.7 ,10.4 ,38.4 
2005/1/3,13:00:00,10.1 ,48.1 ,9.3 ,8.6 ,9.8 ,10.6 ,38.3 
2005/1/3,13:15:00,10.2 ,48.2 ,9.3 ,8.6 ,9.9 ,10.6 ,38.5 
2005/1/3,13:30:00,10.3 ,48.2 ,9.4 ,8.6 ,10.0 ,10.7 ,38.5 
2005/1/3,13:45:00,10.3 ,47.9 ,9.5 ,8.6 ,10.1 ,10.8 ,38.3 
2005/1/3,14:00:00,10.4 ,47.9 ,9.5 ,8.6 ,10.2 ,10.9 ,38.3 
2005/1/3,14:15:00,10.5 ,47.9 ,9.6 ,8.6 ,10.3 ,10.9 ,38.3 
2005/1/3,14:30:00,10.6 ,47.9 ,9.6 ,8.6 ,10.4 ,11.0 ,38.3 
2005/1/3,14:45:00,10.6 ,47.7 ,9.7 ,8.6 ,10.4 ,11.0 ,38.1 
2005/1/3,15:00:00,10.7 ,47.6 ,9.7 ,8.6 ,10.4 ,11.1 ,38.0 
2005/1/3,15:15:00,10.7 ,47.3 ,9.7 ,8.6 ,10.4 ,11.1 ,37.8 
2005/1/3,15:30:00,10.6 ,47.2 ,9.6 ,8.7 ,10.4 ,11.1 ,37.7 
2005/1/3,15:45:00,10.6 ,47.3 ,9.6 ,8.7 ,10.3 ,11.1 ,37.6 
2005/1/3,16:00:00,10.6 ,47.3 ,9.6 ,8.7 ,10.3 ,11.0 ,37.6 
2005/1/3,16:15:00,10.6 ,47.4 ,9.6 ,8.7 ,10.2 ,11.0 ,37.6 
2005/1/3,16:30:00,10.5 ,47.5 ,9.5 ,8.7 ,10.2 ,11.0 ,37.5 
2005/1/3,16:45:00,10.5 ,47.5 ,9.5 ,8.7 ,10.2 ,11.0 ,37.5 
2005/1/3,17:00:00,10.4 ,47.7 ,9.5 ,8.7 ,10.1 ,11.0 ,37.4 
2005/1/3,17:15:00,10.4 ,47.8 ,9.5 ,8.8 ,10.1 ,10.9 ,37.6 
2005/1/3,17:30:00,10.3 ,47.9 ,9.5 ,8.8 ,10.1 ,10.9 ,37.6 
2005/1/3,17:45:00,10.3 ,48.0 ,9.4 ,8.8 ,10.0 ,10.9 ,37.8 
2005/1/3,18:00:00,10.3 ,48.2 ,9.4 ,8.8 ,10.0 ,10.9 ,37.8 
2005/1/3,18:15:00,10.2 ,48.4 ,9.4 ,8.8 ,10.0 ,10.9 ,38.1 
2005/1/3,18:30:00,10.2 ,48.5 ,9.4 ,8.8 ,9.9 ,10.9 ,38.3 
2005/1/3,18:45:00,10.1 ,48.7 ,9.4 ,8.8 ,9.9 ,10.9 ,38.3 
2005/1/3,19:00:00,10.1 ,48.8 ,9.4 ,8.8 ,9.9 ,10.8 ,38.4 
2005/1/3,19:15:00,10.1 ,49.0 ,9.3 ,8.9 ,9.9 ,10.8 ,38.4 
2005/1/3,19:30:00,10.0 ,48.9 ,9.3 ,8.9 ,9.8 ,10.8 ,38.4 
2005/1/3,19:45:00,10.0 ,48.8 ,9.3 ,8.9 ,9.8 ,10.8 ,38.6 
2005/1/3,20:00:00,10.0 ,48.7 ,9.3 ,8.9 ,9.8 ,10.8 ,38.6 
2005/1/3,20:15:00,9.9 ,48.6 ,9.3 ,8.9 ,9.8 ,10.7 ,38.7 
2005/1/3,20:30:00,9.9 ,48.6 ,9.3 ,8.9 ,9.8 ,10.7 ,38.7 
2005/1/3,20:45:00,9.9 ,48.6 ,9.2 ,8.9 ,9.8 ,10.6 ,38.8 
2005/1/3,21:00:00,9.9 ,48.6 ,9.2 ,8.9 ,9.7 ,10.6 ,38.9 
2005/1/3,21:15:00,9.8 ,48.5 ,9.2 ,8.9 ,9.7 ,10.6 ,38.9 
2005/1/3,21:30:00,9.8 ,48.5 ,9.2 ,8.9 ,9.7 ,10.6 ,39.0 
2005/1/3,21:45:00,9.8 ,48.5 ,9.2 ,8.9 ,9.7 ,10.6 ,39.1 
2005/1/3,22:00:00,9.7 ,48.6 ,9.2 ,8.9 ,9.6 ,10.5 ,39.2 
2005/1/3,22:15:00,9.7 ,48.6 ,9.1 ,9.0 ,9.6 ,10.5 ,39.3 
2005/1/3,22:30:00,9.7 ,48.6 ,9.1 ,9.0 ,9.5 ,10.4 ,39.4 
2005/1/3,22:45:00,9.7 ,48.7 ,9.1 ,9.0 ,9.5 ,10.4 ,39.4 
2005/1/3,23:00:00,9.6 ,48.7 ,9.1 ,9.0 ,9.5 ,10.4 ,39.6 
2005/1/3,23:15:00,9.6 ,48.8 ,9.0 ,9.0 ,9.5 ,10.4 ,39.6 
2005/1/3,23:30:00,9.6 ,48.8 ,9.0 ,9.0 ,9.4 ,10.3 ,39.7 
2005/1/3,23:45:00,9.6 ,48.8 ,9.0 ,9.0 ,9.4 ,10.3 ,39.8 
2005/1/4,0:00:00,9.5 ,48.8 ,9.0 ,9.0 ,9.4 ,10.3 ,39.8 
2005/1/4,0:15:00,9.5 ,48.9 ,9.0 ,9.0 ,9.4 ,10.3 ,39.8 
2005/1/4,0:30:00,9.5 ,48.8 ,8.9 ,9.0 ,9.3 ,10.2 ,39.9 
2005/1/4,0:45:00,9.4 ,48.8 ,8.9 ,9.0 ,9.3 ,10.2 ,39.9 
2005/1/4,1:00:00,9.4 ,48.8 ,8.9 ,9.0 ,9.3 ,10.2 ,39.9 
2005/1/4,1:15:00,9.4 ,48.8 ,8.9 ,9.0 ,9.3 ,10.1 ,40.0 
2005/1/4,1:30:00,9.3 ,48.8 ,8.8 ,9.0 ,9.2 ,10.1 ,40.0 
2005/1/4,1:45:00,9.3 ,48.8 ,8.8 ,9.0 ,9.2 ,10.0 ,40.1 
2005/1/4,2:00:00,9.3 ,48.8 ,8.8 ,9.0 ,9.2 ,9.9 ,40.1 
2005/1/4,2:15:00,9.2 ,48.7 ,8.8 ,9.0 ,9.2 ,9.9 ,40.1 
2005/1/4,2:30:00,9.2 ,48.7 ,8.7 ,9.1 ,9.1 ,9.9 ,40.1 
2005/1/4,2:45:00,9.2 ,48.8 ,8.7 ,9.1 ,9.1 ,9.9 ,40.1 
2005/1/4,3:00:00,9.2 ,48.8 ,8.7 ,9.1 ,9.1 ,9.8 ,40.1 
2005/1/4,3:15:00,9.1 ,48.8 ,8.7 ,9.1 ,9.1 ,9.8 ,40.1 
2005/1/4,3:30:00,9.1 ,48.9 ,8.7 ,9.1 ,9.0 ,9.8 ,40.1 
2005/1/4,3:45:00,9.1 ,49.0 ,8.7 ,9.1 ,9.0 ,9.8 ,40.2 
2005/1/4,4:00:00,9.1 ,49.0 ,8.6 ,9.1 ,9.0 ,9.8 ,40.3 
2005/1/4,4:15:00,9.1 ,49.2 ,8.6 ,9.1 ,9.0 ,9.7 ,40.4 
2005/1/4,4:30:00,9.1 ,49.8 ,8.6 ,9.1 ,9.0 ,9.7 ,40.7 
2005/1/4,4:45:00,9.1 ,50.1 ,8.6 ,9.1 ,9.0 ,9.7 ,41.0 
2005/1/4,5:00:00,9.1 ,50.4 ,8.6 ,9.1 ,9.0 ,9.7 ,41.2 
2005/1/4,5:15:00,9.1 ,50.7 ,8.7 ,9.1 ,9.0 ,9.6 ,41.4 
2005/1/4,5:30:00,9.1 ,51.0 ,8.6 ,9.1 ,9.0 ,9.6 ,41.6 
2005/1/4,5:45:00,9.1 ,51.2 ,8.7 ,9.1 ,9.1 ,9.6 ,41.7 
2005/1/4,6:00:00,9.1 ,51.5 ,8.7 ,9.1 ,9.1 ,9.6 ,41.8 
2005/1/4,6:15:00,9.1 ,51.8 ,8.7 ,9.1 ,9.1 ,9.6 ,42.0 
2005/1/4,6:30:00,9.1 ,52.2 ,8.7 ,9.1 ,9.1 ,9.6 ,42.2 
2005/1/4,6:45:00,9.1 ,52.5 ,8.7 ,9.1 ,9.1 ,9.6 ,42.4 
2005/1/4,7:00:00,9.1 ,52.8 ,8.7 ,9.1 ,9.1 ,9.6 ,42.6 
2005/1/4,7:15:00,9.1 ,53.0 ,8.7 ,9.1 ,9.2 ,9.6 ,42.8 
2005/1/4,7:30:00,9.2 ,53.6 ,8.7 ,9.1 ,9.2 ,9.6 ,43.1 
2005/1/4,7:45:00,9.2 ,54.1 ,8.7 ,9.1 ,9.2 ,9.6 ,43.3 
2005/1/4,8:00:00,9.2 ,54.8 ,8.7 ,9.2 ,9.2 ,9.6 ,43.5 
2005/1/4,8:15:00,9.2 ,55.5 ,8.7 ,9.2 ,9.3 ,9.6 ,43.8 
2005/1/4,8:30:00,9.2 ,55.3 ,8.7 ,9.2 ,9.3 ,9.6 ,43.9 
2005/1/4,8:45:00,9.2 ,55.1 ,8.7 ,9.2 ,9.3 ,9.6 ,44.0 
2005/1/4,9:00:00,9.2 ,55.0 ,8.7 ,9.2 ,9.3 ,9.7 ,44.1 
2005/1/4,9:15:00,9.2 ,54.9 ,8.7 ,9.2 ,9.3 ,9.7 ,44.1 
2005/1/4,9:30:00,9.3 ,54.8 ,8.7 ,9.2 ,9.3 ,9.7 ,44.1 
2005/1/4,9:45:00,9.3 ,54.7 ,8.7 ,9.2 ,9.3 ,9.7 ,44.1 
2005/1/4,10:00:00,9.3 ,54.7 ,8.7 ,9.2 ,9.3 ,9.7 ,44.2 
2005/1/4,10:15:00,9.3 ,54.6 ,8.7 ,9.2 ,9.3 ,9.7 ,44.2 
2005/1/4,10:30:00,9.3 ,54.6 ,8.8 ,9.2 ,9.4 ,9.7 ,44.2 
2005/1/4,10:45:00,9.3 ,54.6 ,8.8 ,9.3 ,9.3 ,9.7 ,44.3 
2005/1/4,11:00:00,9.3 ,54.6 ,8.8 ,9.3 ,9.3 ,9.7 ,44.3 
2005/1/4,11:15:00,9.3 ,54.5 ,8.8 ,9.3 ,9.3 ,9.7 ,44.3 
2005/1/4,11:30:00,9.3 ,54.5 ,8.8 ,9.3 ,9.3 ,9.7 ,44.3 
2005/1/4,11:45:00,9.3 ,54.5 ,8.8 ,9.3 ,9.3 ,9.7 ,44.2 
2005/1/4,12:00:00,9.4 ,54.5 ,8.8 ,9.3 ,9.4 ,9.7 ,44.1 
2005/1/4,12:15:00,9.4 ,54.6 ,8.8 ,9.3 ,9.4 ,9.8 ,44.1 
2005/1/4,12:30:00,9.4 ,54.6 ,8.8 ,9.3 ,9.4 ,9.8 ,44.0 
2005/1/4,12:45:00,9.4 ,54.5 ,8.8 ,9.3 ,9.2 ,9.8 ,44.1 
2005/1/4,13:00:00,9.4 ,54.5 ,8.8 ,9.3 ,9.1 ,9.8 ,44.3 
2005/1/4,13:15:00,9.4 ,54.4 ,8.8 ,9.4 ,9.0 ,9.8 ,44.2 
2005/1/4,13:30:00,9.4 ,54.4 ,8.8 ,9.4 ,9.0 ,9.8 ,44.1 
2005/1/4,13:45:00,9.4 ,54.4 ,8.8 ,9.4 ,9.0 ,9.8 ,44.0 
2005/1/4,14:00:00,9.4 ,54.2 ,8.8 ,9.4 ,9.0 ,9.8 ,44.1 
2005/1/4,14:15:00,9.4 ,54.1 ,8.8 ,9.4 ,8.9 ,9.8 ,44.2 
2005/1/4,14:30:00,9.4 ,54.1 ,8.8 ,9.4 ,8.9 ,9.8 ,44.2 
2005/1/4,14:45:00,9.6 ,54.5 ,8.8 ,9.4 ,8.9 ,9.8 ,44.1 
2005/1/4,15:00:00,11.3 ,50.5 ,8.8 ,9.4 ,9.4 ,9.9 ,43.7 
2005/1/4,15:15:00,12.1 ,49.2 ,8.8 ,9.4 ,9.9 ,10.3 ,43.8 
2005/1/4,15:30:00,12.8 ,47.9 ,8.8 ,9.4 ,10.4 ,10.6 ,43.8 
2005/1/4,15:45:00,13.3 ,47.5 ,8.8 ,9.4 ,10.9 ,11.0 ,43.8 
2005/1/4,16:00:00,13.9 ,47.2 ,8.8 ,9.4 ,11.5 ,11.4 ,43.9 
2005/1/4,16:15:00,14.3 ,47.4 ,8.8 ,9.4 ,11.9 ,11.8 ,44.1 
2005/1/4,16:30:00,14.8 ,47.1 ,8.8 ,9.4 ,12.4 ,12.1 ,44.4 
2005/1/4,16:45:00,15.1 ,46.0 ,8.9 ,7.2 ,12.9 ,12.4 ,44.1 
2005/1/4,17:00:00,15.5 ,45.9 ,8.9 ,7.3 ,13.2 ,12.8 ,44.1 
2005/1/4,17:15:00,16.0 ,46.3 ,8.9 ,7.4 ,13.5 ,13.0 ,44.1 
2005/1/4,17:30:00,16.3 ,48.0 ,8.9 ,7.5 ,13.3 ,13.4 ,45.3 
2005/1/4,17:45:00,16.6 ,47.9 ,8.9 ,7.5 ,13.9 ,13.6 ,45.4 
2005/1/4,18:00:00,17.1 ,47.6 ,9.0 ,7.6 ,14.4 ,13.9 ,45.8 
2005/1/4,18:15:00,17.5 ,47.8 ,9.0 ,7.6 ,14.9 ,14.3 ,46.4 
2005/1/4,18:30:00,17.7 ,45.9 ,9.0 ,7.7 ,19.9 ,14.4 ,45.8 
2005/1/4,18:45:00,17.9 ,43.7 ,9.0 ,7.7 ,20.1 ,14.6 ,44.8 
2005/1/4,19:00:00,18.4 ,44.0 ,9.1 ,7.7 ,18.8 ,14.9 ,44.5 
2005/1/4,19:15:00,18.5 ,44.9 ,9.1 ,7.8 ,17.7 ,15.2 ,44.9 
2005/1/4,19:30:00,18.6 ,44.3 ,9.2 ,7.8 ,17.1 ,15.4 ,44.8 
2005/1/4,19:45:00,18.6 ,43.7 ,9.2 ,7.8 ,16.7 ,15.6 ,44.3 
2005/1/4,20:00:00,18.7 ,43.1 ,9.3 ,7.9 ,16.7 ,15.7 ,44.0 
2005/1/4,20:15:00,18.8 ,42.4 ,9.3 ,6.2 ,16.2 ,15.8 ,43.7 
2005/1/4,20:30:00,19.1 ,41.9 ,9.3 ,6.3 ,16.1 ,15.9 ,43.6 
2005/1/4,20:45:00,19.1 ,42.1 ,9.3 ,6.4 ,16.2 ,16.1 ,43.4 
2005/1/4,21:00:00,19.2 ,42.1 ,9.3 ,6.5 ,16.2 ,16.2 ,43.4 
2005/1/4,21:15:00,19.2 ,42.3 ,9.3 ,6.5 ,16.5 ,16.3 ,43.4 
2005/1/4,21:30:00,19.4 ,43.4 ,9.3 ,6.6 ,16.9 ,16.4 ,43.6 
2005/1/4,21:45:00,19.4 ,44.5 ,9.3 ,6.7 ,17.1 ,16.6 ,44.2 
2005/1/4,22:00:00,19.5 ,44.0 ,9.3 ,6.7 ,17.0 ,16.7 ,44.3 
2005/1/4,22:15:00,18.7 ,44.8 ,9.4 ,6.8 ,16.5 ,16.7 ,43.5 
2005/1/4,22:30:00,18.1 ,45.1 ,9.4 ,6.8 ,15.8 ,16.5 ,43.0 
2005/1/4,22:45:00,17.7 ,45.3 ,9.4 ,6.9 ,15.2 ,16.3 ,42.9 
2005/1/4,23:00:00,17.3 ,45.5 ,9.4 ,6.9 ,14.9 ,16.1 ,42.8 
2005/1/4,23:15:00,16.9 ,45.8 ,9.4 ,7.0 ,14.6 ,15.9 ,42.6 
2005/1/4,23:30:00,16.7 ,45.8 ,9.4 ,7.0 ,14.3 ,15.8 ,42.5 
2005/1/4,23:45:00,16.5 ,45.7 ,9.4 ,7.0 ,14.1 ,15.7 ,42.4 
2005/1/5,0:00:00,16.2 ,45.5 ,9.4 ,7.0 ,13.8 ,15.6 ,42.3 
2005/1/5,0:15:00,16.0 ,45.5 ,9.4 ,7.0 ,13.4 ,15.4 ,42.1 
2005/1/5,0:30:00,15.8 ,45.4 ,9.4 ,7.1 ,13.2 ,15.4 ,41.8 
2005/1/5,0:45:00,15.6 ,45.5 ,9.4 ,7.1 ,13.1 ,15.3 ,41.6 
2005/1/5,1:00:00,15.4 ,45.3 ,9.3 ,7.1 ,12.9 ,15.1 ,41.3 
2005/1/5,1:15:00,15.2 ,45.2 ,9.3 ,7.1 ,12.8 ,15.1 ,41.1 
2005/1/5,1:30:00,15.0 ,45.1 ,9.3 ,7.1 ,12.6 ,14.9 ,40.9 
2005/1/5,1:45:00,14.9 ,45.1 ,9.3 ,7.1 ,12.5 ,14.8 ,40.8 
2005/1/5,2:00:00,14.7 ,45.1 ,9.3 ,7.1 ,12.4 ,14.6 ,40.8 
2005/1/5,2:15:00,14.6 ,45.1 ,9.2 ,7.1 ,12.4 ,14.6 ,40.9 
2005/1/5,2:30:00,14.5 ,45.2 ,9.2 ,7.1 ,12.3 ,14.4 ,41.0 
2005/1/5,2:45:00,14.4 ,45.2 ,9.2 ,7.1 ,12.1 ,14.4 ,41.0 
2005/1/5,3:00:00,14.2 ,45.2 ,9.1 ,7.1 ,12.1 ,14.2 ,41.1 
2005/1/5,3:15:00,14.1 ,45.6 ,9.1 ,7.1 ,12.0 ,14.1 ,41.0 
2005/1/5,3:30:00,14.0 ,45.0 ,9.1 ,7.1 ,11.8 ,14.0 ,40.9 
2005/1/5,3:45:00,13.9 ,45.6 ,9.1 ,7.1 ,11.6 ,13.9 ,40.7 
2005/1/5,4:00:00,13.8 ,45.6 ,9.0 ,7.1 ,11.4 ,13.8 ,40.6 
2005/1/5,4:15:00,13.6 ,46.2 ,9.0 ,7.1 ,11.2 ,13.8 ,40.5 
2005/1/5,4:30:00,13.5 ,45.8 ,9.0 ,7.1 ,11.0 ,13.6 ,40.5 
2005/1/5,4:45:00,13.4 ,45.6 ,8.9 ,7.1 ,11.0 ,13.6 ,40.4 
2005/1/5,5:00:00,13.3 ,45.5 ,8.9 ,7.1 ,11.0 ,13.5 ,40.4 
2005/1/5,5:15:00,13.2 ,45.6 ,8.9 ,7.1 ,11.0 ,13.4 ,40.5 
2005/1/5,5:30:00,13.1 ,45.4 ,8.8 ,7.1 ,11.0 ,13.4 ,40.6 
2005/1/5,5:45:00,13.0 ,46.0 ,8.8 ,7.1 ,10.7 ,13.3 ,40.5 
2005/1/5,6:00:00,13.3 ,46.6 ,8.8 ,7.1 ,10.8 ,13.1 ,40.6 
2005/1/5,6:15:00,14.5 ,45.1 ,8.7 ,7.1 ,11.7 ,13.4 ,41.3 
2005/1/5,6:30:00,15.0 ,43.9 ,8.7 ,7.1 ,12.3 ,13.6 ,41.4 
2005/1/5,6:45:00,15.7 ,43.0 ,8.7 ,6.9 ,13.0 ,13.9 ,41.4 
2005/1/5,7:00:00,16.4 ,41.6 ,8.7 ,7.0 ,13.6 ,14.2 ,41.2 